Location: Cowley
(49.5667°N, 114.0667°W)
Time: 12:59:50
(UTC+00:00)

Envisat - Visible Passes

Search period start: 01 December 2021 00:00
Search period end: 11 December 2021 00:00
Orbit: 764 x 766 km, 98.2° (Epoch: 01 December)

Date Brightness Start Highest point End Pass type
(mag) Time Alt. Az. Time Alt. Az. Time Alt. Az.
01 Dec 4.7 00:21:31 10° SSW 00:26:13 38° W 00:30:57 10° NNW visible
01 Dec 3.7 12:25:23 10° NNE 12:30:24 55° E 12:35:22 10° S visible
01 Dec 3.9 14:05:00 10° N 14:09:06 25° WNW 14:13:12 10° WSW visible
02 Dec 6.2 01:27:29 10° WSW 01:29:06 11° W 01:30:44 10° WNW visible
02 Dec 4.9 11:48:57 10° NE 11:53:17 27° E 11:57:35 10° SSE visible
02 Dec 3.2 13:27:39 10° N 13:32:31 47° WNW 13:37:22 10° SW visible
03 Dec 5.6 00:47:43 10° SW 00:51:45 23° W 00:55:48 10° NW visible
03 Dec 5.9 11:13:28 10° NE 11:15:59 14° E 11:18:29 10° ESE visible
03 Dec 2.9 12:50:38 10° NNE 12:55:45 88° ESE 13:00:51 10° SSW visible
03 Dec 4.4 14:30:56 10° NNW 14:34:05 17° NW 14:37:15 10° W visible
04 Dec 4.3 00:09:43 10° S 00:14:36 47° W 00:19:31 10° NNW visible
04 Dec 4.1 12:13:55 10° NNE 12:18:47 44° E 12:23:37 10° S visible
04 Dec 3.7 13:53:15 10° N 13:57:39 30° WNW 14:02:02 10° WSW visible
05 Dec 6.0 01:14:38 10° WSW 01:17:22 14° W 01:20:07 10° NW visible
05 Dec 5.3 11:37:40 10° NE 11:41:37 22° E 11:45:33 10° SE visible
05 Dec 3.0 13:16:01 10° N 13:21:00 58° WNW 13:25:59 10° SSW visible
06 Dec 5.2 00:35:42 10° SSW 00:40:05 29° W 00:44:29 10° NNW visible
06 Dec 6.1 11:03:07 10° ENE 11:04:15 11° E 11:05:22 10° E visible
06 Dec 3.2 12:39:05 10° NNE 12:44:11 72° ESE 12:49:15 10° S visible
06 Dec 4.2 14:19:03 10° NNW 14:22:41 20° WNW 14:26:18 10° WSW visible
07 Dec 4.5 12:02:28 10° NNE 12:07:10 36° E 12:11:48 10° SSE visible
07 Dec 3.5 13:41:32 10° N 13:46:11 36° WNW 13:50:48 10° SW visible
08 Dec 5.8 01:02:15 10° SW 01:05:40 18° W 01:09:06 10° NW visible
08 Dec 5.5 11:26:28 10° NE 11:29:56 18° E 11:33:22 10° SE visible
08 Dec 2.9 13:04:24 10° N 13:09:29 71° WNW 13:14:32 10° SSW visible
09 Dec 4.8 00:23:48 10° SSW 00:28:26 35° W 00:33:07 10° NNW visible
09 Dec 3.5 12:27:33 10° NNE 12:32:36 58° E 12:37:36 10° S visible
09 Dec 4.0 14:07:15 10° N 14:11:15 24° WNW 14:15:15 10° WSW visible
10 Dec 6.3 01:30:19 10° W 01:31:21 11° W 01:32:23 10° WNW visible
10 Dec 4.8 11:51:05 10° NNE 11:55:31 29° E 11:59:54 10° SSE visible
10 Dec 3.2 13:29:52 10° N 13:34:41 44° WNW 13:39:29 10° SW visible
